Date String (YYYY-MM-DD hh:mm:ss) UTC,Instrument flags,absolute air pressure of the measurement (hPa),sample flow rate (lpm),inlet stack bypass flow (lpm),air temperature of the measurement (°C),ambient temperature measured by the external sensor (°C),aerosol sample conditioner tube jacket temperature (°C),OPC LED temperature (°C),internal box temperature (°C),relative humidity of the measurement (%),span deviation,mass concentration of particles derived from Lorenz-Mie calculation of OPC scattering (μg/m³),mass concentration of particles derived from Lorenz-Mie calculation of OPC scattering (μg/m³),mass concentration of particles derived from Lorenz-Mie calculation of OPC scattering (μg/m³)
DateTimeUTC,F1_M11,P_M11,Q1_M11,Q2_M11,T1_M11,T2_M11,T3_M11,T4_M11,T5_M11,U1_M11,ZSPAN_M11,X0_M11,X2_M11,X1_M11
2024-03-22 13:00:00,SystemResetWarning,0831.3,4.99,000.00,020.0,019.3,000.0,028.7,021.8,20.3,0000.0,0013.75,0004.07,0002.84
2024-03-22 13:01:00,SystemResetWarning,0831.2,5.01,000.00,020.0,019.3,000.0,028.7,021.8,20.2,0000.0,0013.75,0004.07,0002.85
2024-03-22 13:02:00,SystemResetWarning,0831.3,5.02,000.00,020.0,019.3,000.0,028.7,021.8,20.2,0000.0,0013.30,0004.02,0002.84
2024-03-22 13:03:00,SystemResetWarning,0831.3,5.00,000.00,020.0,019.3,000.0,028.7,021.8,20.1,0000.0,0012.75,0003.95,0002.82
2024-03-22 13:04:00,SystemResetWarning,0831.3,4.99,000.00,020.0,019.3,000.0,028.6,021.8,20.2,0000.0,0011.66,0003.91,0002.79
2024-03-22 13:05:00,SystemResetWarning,0831.2,5.00,000.00,020.0,019.3,000.0,028.6,021.8,20.2,0000.0,0010.19,0003.88,0002.77
2024-03-22 13:06:00,SystemResetWarning,0831.3,5.01,000.00,020.0,019.3,000.0,028.6,021.8,20.3,0000.0,0010.06,0003.84,0002.74
2024-03-22 13:07:00,SystemResetWarning,0831.3,5.00,000.00,019.9,019.3,000.0,028.6,021.8,20.4,0000.0,0010.86,0003.87,0002.72
2024-03-22 13:08:00,SystemResetWarning,0831.3,4.99,000.00,019.9,019.3,000.0,028.6,021.7,20.4,0000.0,0011.24,0003.91,0002.72
2024-03-22 13:09:00,SystemResetWarning,0831.3,4.99,000.00,019.9,019.3,000.0,028.6,021.7,20.4,0000.0,0011.35,0003.90,0002.69
2024-03-22 13:10:00,SystemResetWarning,0831.3,5.01,000.00,019.9,019.2,000.0,028.6,021.7,20.4,0000.0,0011.71,0003.91,0002.68
2024-03-22 13:11:00,SystemResetWarning,0831.3,5.02,000.00,019.9,019.2,000.0,028.6,021.7,20.4,0000.0,0012.39,0003.90,0002.65
2024-03-22 13:12:00,SystemResetWarning,0831.3,4.99,000.00,019.9,019.2,000.0,028.6,021.7,20.3,0000.0,0012.76,0003.87,0002.63
2024-03-22 13:13:00,SystemResetWarning,0831.2,5.00,000.00,019.9,019.2,000.0,028.6,021.7,20.3,0000.0,0012.71,0003.87,0002.60
2024-03-22 13:14:00,SystemResetWarning,0831.3,4.99,000.00,019.9,019.2,000.0,028.5,021.7,20.3,0000.0,0012.65,0003.86,0002.59
2024-03-22 13:15:00,SystemResetWarning,0831.3,4.99,000.00,019.9,019.2,000.0,028.5,021.7,20.3,0000.0,0012.78,0003.89,0002.58
2024-03-22 13:16:00,SystemResetWarning,0831.3,5.01,000.00,019.9,019.2,000.0,028.5,021.7,20.3,0000.0,0012.43,0003.88,0002.57
2024-03-22 13:17:00,SystemResetWarning,0831.3,5.01,000.00,019.9,019.2,000.0,028.5,021.7,20.4,0000.0,0012.88,0003.91,0002.58
2024-03-22 13:18:00,SystemResetWarning,0831.3,5.00,000.00,019.8,019.2,000.0,028.5,021.7,20.4,0000.0,0012.42,0003.87,0002.59
2024-03-22 13:19:00,SystemResetWarning,0831.3,5.00,000.00,019.8,019.2,000.0,028.5,021.7,20.5,0000.0,0012.14,0003.83,0002.57
2024-03-22 13:20:00,SystemResetWarning,0831.3,5.00,000.00,019.8,019.2,000.0,028.5,021.7,20.5,0000.0,0011.99,0003.79,0002.57
2024-03-22 13:21:00,SystemResetWarning,0831.3,4.99,000.00,019.8,019.2,000.0,028.5,021.7,20.4,0000.0,0011.62,0003.77,0002.57
2024-03-22 13:22:00,SystemResetWarning,0831.3,5.00,000.00,019.8,019.2,000.0,028.5,021.7,20.4,0000.0,0010.64,0003.75,0002.57
2024-03-22 13:23:00,SystemResetWarning,0831.3,4.99,000.00,019.8,019.2,000.0,028.5,021.6,20.4,0000.0,0010.26,0003.75,0002.56
2024-03-22 13:24:00,SystemResetWarning,0831.3,5.00,000.00,019.8,019.2,000.0,028.5,021.7,20.4,0000.0,0010.66,0003.75,0002.55
2024-03-22 13:25:00,SystemResetWarning,0831.3,5.00,000.00,019.8,019.2,000.0,028.5,021.6,20.4,0000.0,0010.70,0003.79,0002.59
2024-03-22 13:26:00,SystemResetWarning,0831.3,5.00,000.00,019.8,019.1,000.0,028.5,021.6,20.5,0000.0,0010.68,0003.78,0002.59
2024-03-22 13:27:00,SystemResetWarning,0831.3,5.01,000.00,019.8,019.1,000.0,028.5,021.6,20.5,0000.0,0011.64,0003.84,0002.61
2024-03-22 13:28:00,SystemResetWarning,0831.3,5.00,000.00,019.8,019.1,000.0,028.4,021.6,20.6,0000.0,0012.76,0003.85,0002.63
2024-03-22 13:29:00,SystemResetWarning,0831.3,5.00,000.00,019.8,019.2,000.0,028.4,021.6,20.6,0000.0,0012.61,0003.82,0002.62
2024-03-22 13:30:00,SystemResetWarning,0831.3,5.00,000.00,019.8,019.2,000.0,028.4,021.6,20.5,0000.0,0013.08,0003.86,0002.62
2024-03-22 13:31:00,SystemResetWarning,0831.3,5.00,000.00,019.8,019.1,000.0,028.4,021.6,20.4,0000.0,0012.71,0003.88,0002.64
2024-03-22 13:32:00,SystemResetWarning,0831.3,5.00,000.00,019.8,019.1,000.0,028.4,021.6,20.4,0000.0,0012.24,0003.88,0002.64
2024-03-22 13:33:00,SystemResetWarning,0831.3,5.00,000.00,019.8,019.1,000.0,028.4,021.6,20.4,0000.0,0012.30,0003.87,0002.64
2024-03-22 13:34:00,SystemResetWarning,0831.3,5.01,000.00,019.8,019.1,000.0,028.4,021.6,20.5,0000.0,0012.39,0003.88,0002.66
2024-03-22 13:35:00,SystemResetWarning,0831.3,5.00,000.00,019.8,019.1,000.0,028.4,021.6,20.5,0000.0,0012.19,0003.86,0002.67
2024-03-22 13:36:00,SystemResetWarning,0831.4,5.00,000.00,019.7,019.1,000.0,028.4,021.6,20.5,0000.0,0012.53,0003.81,0002.66
2024-03-22 13:37:00,SystemResetWarning,0831.3,5.00,000.00,019.8,019.1,000.0,028.4,021.6,20.5,0000.0,0013.01,0003.77,0002.65
2024-03-22 13:38:00,SystemResetWarning,0831.3,5.00,000.00,019.7,019.1,000.0,028.4,021.6,20.5,0000.0,0012.80,0003.74,0002.65
2024-03-22 13:39:00,SystemResetWarning,0831.4,4.99,000.00,019.7,019.1,000.0,028.4,021.6,20.5,0000.0,0011.83,0003.75,0002.64
2024-03-22 13:40:00,SystemResetWarning,0831.5,5.00,000.00,019.7,019.1,000.0,028.4,021.6,20.4,0000.0,0011.65,0003.79,0002.63
2024-03-22 13:41:00,SystemResetWarning,0831.4,5.00,000.00,019.7,019.1,000.0,028.4,021.6,20.4,0000.0,0011.63,0003.78,0002.62
2024-03-22 13:42:00,SystemResetWarning,0831.5,4.99,000.00,019.7,019.1,000.0,028.4,021.6,20.4,0000.0,0012.15,0003.80,0002.61
2024-03-22 13:43:00,SystemResetWarning,0831.5,5.00,000.00,019.7,019.1,000.0,028.4,021.6,20.4,0000.0,0012.21,0003.77,0002.62
2024-03-22 13:44:00,SystemResetWarning,0831.5,5.00,000.00,019.7,019.1,000.0,028.4,021.6,20.4,0000.0,0012.42,0003.77,0002.63
2024-03-22 13:45:00,SystemResetWarning,0831.5,5.00,000.00,019.7,019.1,000.0,028.3,021.6,20.4,0000.0,0013.34,0003.78,0002.64
2024-03-22 13:46:00,SystemResetWarning,0831.5,5.00,000.00,019.7,019.1,000.0,028.3,021.5,20.5,0000.0,0013.50,0003.81,0002.66
2024-03-22 13:47:00,SystemResetWarning,0831.5,5.01,000.00,019.7,019.1,000.0,028.3,021.6,20.5,0000.0,0012.89,0003.83,0002.65
2024-03-22 13:48:00,SystemResetWarning,0831.5,5.00,000.00,019.7,019.1,000.0,028.3,021.6,20.7,0000.0,0012.51,0003.86,0002.66
2024-03-22 13:49:00,SystemResetWarning,0831.5,5.00,000.00,019.7,019.1,000.0,028.3,021.5,21.6,0000.0,0012.48,0003.89,0002.69
2024-03-22 13:50:00,SystemResetWarning,0831.5,4.99,000.00,019.7,019.1,000.0,028.3,021.6,21.7,0000.0,0012.75,0003.89,0002.70
2024-03-22 13:51:00,SystemResetWarning,0831.5,4.99,000.00,019.7,019.1,000.0,028.3,021.5,20.9,0000.0,0013.79,0003.90,0002.73
2024-03-22 13:52:00,SystemResetWarning,0831.5,4.99,000.00,019.7,019.1,000.0,028.3,021.6,20.7,0000.0,0013.88,0003.86,0002.76
2024-03-22 13:53:00,SystemResetWarning,0831.5,5.00,000.00,019.7,019.1,000.0,028.3,021.6,20.8,0000.0,0013.24,0003.81,0002.78
2024-03-22 13:54:00,SystemResetWarning,0831.5,5.00,000.00,019.7,019.1,000.0,028.3,021.6,20.8,0000.0,0012.82,0003.82,0002.79
2024-03-22 13:55:00,SystemResetWarning,0831.5,5.00,000.00,019.7,019.2,000.0,028.3,021.6,20.8,0000.0,0012.49,0003.85,0002.81
2024-03-22 13:56:00,SystemResetWarning,0831.5,5.01,000.00,019.7,019.2,000.0,028.3,021.6,21.2,0000.0,0011.45,0003.84,0002.82
2024-03-22 13:57:00,SystemResetWarning,0831.5,5.00,000.00,019.7,019.2,000.0,028.3,021.5,21.0,0000.0,0011.03,0003.83,0002.83
2024-03-22 13:58:00,SystemResetWarning,0831.5,5.01,000.00,019.7,019.2,000.0,028.3,021.6,21.1,0000.0,0011.58,0003.90,0002.84
2024-03-22 13:59:00,SystemResetWarning,0831.5,4.99,000.00,019.7,019.2,000.0,028.3,021.6,21.1,0000.0,0012.66,0003.95,0002.87
